Hourly Data Report for September 29, 2021

WINNIPEG THE FORKS
MANITOBA
Current Station Operator: ECCC - MSC

49°53'18.008" N
97°07'46.007" W
230.00 m
5023262
71579
XWN

Download Data

Hourly Data (September 2021)
Hourly Data Report for September 29, 2021
TIME
LST
Temp Definition
°C
Dew Point Definition
°C
Rel Hum Definition
%
Precip. Amount Definition
mm

Wind Dir Definition
10's deg

Wind Spd Definition
km/h
Visibility Definition
km
Stn Press Definition
kPa
Hmdx Definition


Wind Chill Definition


Weather Definition


00:00 22.3 12.1 53 0.0 24 4   97.82 25   LegendNANA
01:00 21.6 12.5 56 0.0 24 4   97.84     LegendNANA
02:00 20.7 12.5 59 0.0 27 2   97.88     LegendNANA
03:00 20.3 12.4 60 0.0 27 2   97.91     LegendNANA
04:00 19.7 12.1 62 0.0 29 2   97.94     LegendNANA
05:00 19.3 12.0 63 0.0 27 3   97.96     LegendNANA
06:00 18.7 12.1 66 0.0 30 2   97.98     LegendNANA
07:00 18.3 12.3 68 0.0 26 3   98.01     LegendNANA
08:00 19.3 12.7 66 0.0 23 3   98.04     LegendNANA
09:00 21.4 13.4 61 0.0 21 5   98.02     LegendNANA
10:00 23.2 14.0 56 0.0 23 5   98.06 27   LegendNANA
11:00 25.0 14.1 51 0.0 21 7   98.09 28   LegendNANA
12:00 27.6 14.5 45 0.0 10 4   98.06 31   LegendNANA
13:00 29.2 14.8 42 0.0 21 4   98.04 33   LegendNANA
14:00 30.6 14.4 37 0.0 21 7   98.04 34   LegendNANA
15:00 30.8 13.9 36 0.0 21 8   98.08 34   LegendNANA
16:00 30.6 13.9 36 0.0 20 10   98.12 34   LegendNANA
17:00 29.6 14.2 39 0.0 21 9   98.21 33   LegendNANA
18:00 28.0 14.6 44 0.0 21 6   98.27 32   LegendNANA
19:00 26.5 11.2 38 0.0 27 4   98.35 28   LegendNANA
20:00 23.9 10.9 44 0.0 7 3   98.41 26   LegendNANA
21:00 22.3 12.0 52 0.0 22 2   98.50 25   LegendNANA
22:00 21.8 10.7 49 0.0 31 7   98.58     LegendNANA
23:00 20.0 11.9 60 0.0 30 7   98.73     LegendNANA

Notes on Data Quality.

Legend

  • E = Estimated
  • M = Missing
  • NA = Not Available*
  • [empty] = Indicates an unobserved value
Date modified: